Location: Newark
(31.0436°N, 112.2008°E)
Time: 20:59:25
(UTC+00:00)

N. Korean satellite - Pass Details

Date: 07 February 2020
Orbit: 456 x 505 km, 97.2° (Epoch: 26 February)

Event Time Altitude Azimuth Distance (km) Brightness Sun altitude
Rises 22:11:24 0° 11° (N) 2,592 10.3 -14.9°
Reaches altitude 10° 22:13:29 10° 11° (N) 1,710 9.4 -14.5°
Maximum altitude 22:17:10 90° 339° (NNW) 508 6.6 -13.7°
Drops below altitude 10° 22:20:52 10° 192° (SSW) 1,709 9.3 -12.9°
Sets 22:22:56 0° 192° (SSW) 2,589 10.2 -12.5°
